Starlink 30183

operational
NORAD ID: 57436 Int'l Des: 2023-105 Owner: SPXS Country: US Constellation: starlink
LEOCIRCULAR

Starlink 30183について

説明を読み込み中...

リアルタイム位置

3D地球を読み込み中...

次回通過

高度履歴

Altitude vs Time

uPlot chart will show altitude changes over time

軌道要素

1 57436U 23105G 25304.77923065 .00099205 00000-0 20518-2 0 9992
2 57436 42.9858 203.3278 0032358 203.9662 155.9690 15.44197026126639
Epoch: Oct 31, 2025 • Age: 38 hours

現在のステータス

高度 415.3 km
速度 7.67 km/s
衛星直下点 3.36°N, 161.97°W
打ち上げ日 Jul 24, 2023
運用期間 2.2 years
タイプ internet

技術仕様

分類 Payload
質量 730.00 kg
乾燥質量 700.00 kg
総質量 730.00 kg
長さ 0.30 m
直径 4.10 m
スパン 29.00 m
形状 Box + pan
製造者 SPXS
バスタイプ Starlink V2M
フェーズステータス In Orbit
所有者/国 SPXS/US

大規模コンステレーション

Loading constellations...